Location: Unspecified
(0.0000°N, 0.0000°E)
Time: 05:20:39
(UTC+00:00)

Transit 2A - Pass Details

Date: 04 October 2020
Orbit: 593 x 966 km, 66.7° (Epoch: 28 October)

Event Time Altitude Azimuth Distance (km) Brightness Sun altitude
Rises 04:42:11 0° 185° (S) 3,267 9.3 -16.6°
Reaches altitude 10° 04:44:38 10° 177° (S) 2,396 8.7 -16.0°
Maximum altitude 04:49:49 39° 108° (ESE) 1,271 7.7 -14.7°
Drops below altitude 10° 04:55:24 10° 41° (NE) 2,601 9.3 -13.3°
Sets 04:58:10 0° 34° (NE) 3,579 9.9 -12.6°
